Location: Ç?ral? Körfezi
(36.3984°N, 30.4829°E)
Time: 21:00:50
(UTC+00:00)

SeaSat 1 - Pass Details

Date: 04 August 2024
Orbit: 739 x 743 km, 108.0° (Epoch: 14 September)

Event Time Altitude Azimuth Distance (km) Brightness Sun altitude
Exits shadow 22:36:16 27° 11° (N) 1,393 4.3 -36.2°
Drops below altitude 10° 22:38:49 10° 351° (N) 2,259 5.6 -36.1°
Sets 22:41:11 0° 344° (NNW) 3,186 6.5 -36.0°
